Hourly Data Report for September 07, 2020

GIMLI CLIMATE
MANITOBA
Current Station Operator: ECCC - MSC

50°38'00.000" N
97°03'00.000" W
230.10 m
5031042
71748
PGH

Download Data

Hourly Data (September 2020)
Hourly Data Report for September 7, 2020
TIME Temp Definition
°C
Dew Point Definition
°C
Rel Hum Definition
%
Wind Dir Definition
10's deg

Wind Spd Definition
km/h
Visibility Definition
km
Stn Press Definition
kPa
Hmdx Definition


Wind Chill Definition


Weather Definition


00:00 9.0 6.6 85 31 16   98.71     LegendNANA
01:00 7.9 5.8 86 32 19   98.73     LegendNANA
02:00 6.6 4.7 88 31 13   98.75     LegendNANA
03:00 6.0 3.8 86 32 10   98.77     LegendNANA
04:00 4.9 2.8 86 31 12   98.85     LegendNANA
05:00 4.9 1.9 81 31 15   98.90     LegendNANA
06:00 4.1 1.6 83 30 12   98.96     LegendNANA
07:00 5.0 2.3 83 31 13   99.00     LegendNANA
08:00 5.8 3.0 82 33 15   99.03     LegendNANA
09:00 6.9 1.8 70 33 16   99.03     LegendNANA
10:00 8.3 1.5 62 32 23   99.04     LegendNANA
11:00 10.0 0.4 51 32 26   99.06     LegendNANA
12:00 8.1 2.2 66 34 23   99.11     LegendNANA
13:00 10.2 -2.4 41 33 29   99.13     LegendNANA
14:00 10.1 -1.9 43 32 22   99.16     LegendNANA
15:00 9.3 -1.1 48 34 28   99.23     LegendNANA
16:00 10.0 -1.8 44 31 25   99.28     LegendNANA
17:00 8.8 -2.1 46 31 22   99.36     LegendNANA
18:00 8.3 -2.2 48 32 23   99.43     LegendNANA
19:00 6.8 -2.0 54 30 11   99.49     LegendNANA
20:00 4.1 -1.5 67 29 9   99.53     LegendNANA
21:00 2.7 -1.5 74 28 11   99.61     LegendNANA
22:00 4.0 0.5 78 30 14   99.62     LegendNANA
23:00 3.7 1.1 83 31 15   99.67     LegendNANA

Notes on Data Quality.

Legend

  • E = Estimated
  • M = Missing
  • NA = Not Available*
  • [empty] = Indicates an unobserved value
Date modified: